Tracking 18942 objects as of 17-Jan-2018
HD Live streaming from Space Station
objects crossing your sky now

SL-8 R/B

Track SL-8 R/B now!
10-day predictions


NORAD ID: 22308
Int'l Code: 1993-001B
Perigee: 969.6 km
Apogee: 1,003.0 km
Inclination: 82.9 °
Period: 104.7 minutes
Semi major axis: 7357 km
RCS: 5.4041 m2 (large)
Launch date: January 12, 1993
Source: Commonwealth of Independent States (former USSR) (CIS)
Launch site: PLESETSK MISSILE AND SPACE COMPLEX (PKMTR)

Note: This is a ROCKET BODY
aabbcc
Your satellite tracking list
Your tracking list is empty




NASA's NSSDC Master Catalog

Two Line Element Set (TLE):
1 22308U 93001B   18016.93150903 +.00000075 +00000-0 +62225-4 0  9997
2 22308 082.9344 009.5475 0022691 329.1224 089.5980 13.75700025255427
Source of the keplerian elements: AFSPC